contact:dominique.lefevre@mio.osupytheas.fr, maurice.libes@osupytheas.fr, didier.mallarino@osupytheas.fr
Project:EMSO http://www.emso-fr.org/EMSO-France
Depth: 2436.0 m
Title:EMSO Ligure Ouest : Data MII capteur MICROCAT
DateTime_Computer,Latitude,Longitude,Temperature,Conductivity,Pressure,DateTime_Instrument
DateTime_Computer,Latitude,Longitude,degC,S m-1,dbar,DateTime_Instrument
2020-05-26T00:01:31Z,42.805,6.029,13.2993,4.59987,2470.11,2020-5-26T02:02:14Z
2020-05-26T00:04:34Z,42.805,6.029,13.2991,4.59993,2470.11,2020-5-26T02:05:17Z
2020-05-26T00:07:38Z,42.805,6.029,13.2990,4.59988,2470.077,2020-5-26T02:08:20Z
2020-05-26T00:10:41Z,42.805,6.029,13.2991,4.59989,2470.11,2020-5-26T02:11:23Z
2020-05-26T00:13:44Z,42.805,6.029,13.2994,4.59988,2470.077,2020-5-26T02:14:27Z
2020-05-26T00:16:47Z,42.805,6.029,13.2995,4.59989,2470.11,2020-5-26T02:17:30Z
2020-05-26T00:19:51Z,42.805,6.029,13.2988,4.59986,2470.077,2020-5-26T02:20:33Z
2020-05-26T00:22:54Z,42.805,6.029,13.2990,4.59993,2470.1,2020-5-26T02:23:37Z
2020-05-26T00:25:57Z,42.805,6.029,13.2987,4.59991,2470.077,2020-5-26T02:26:40Z
2020-05-26T00:29:00Z,42.805,6.029,13.2998,4.59990,2470.063,2020-5-26T02:29:43Z
2020-05-26T00:32:03Z,42.805,6.029,13.2990,4.59988,2470.11,2020-5-26T02:32:46Z
2020-05-26T00:35:07Z,42.805,6.029,13.2995,4.59985,2470.1,2020-5-26T02:35:49Z
2020-05-26T00:38:10Z,42.805,6.029,13.2996,4.59997,2470.087,2020-5-26T02:38:53Z
2020-05-26T00:41:13Z,42.805,6.029,13.2981,4.59986,2470.063,2020-5-26T02:41:56Z
2020-05-26T00:44:16Z,42.805,6.029,13.2986,4.59989,2470.087,2020-5-26T02:44:59Z
2020-05-26T00:47:20Z,42.805,6.029,13.2995,4.59993,2470.087,2020-5-26T02:48:02Z
2020-05-26T00:50:23Z,42.805,6.029,13.2990,4.59983,2470.063,2020-5-26T02:51:06Z
2020-05-26T00:53:26Z,42.805,6.029,13.2999,4.59992,2470.017,2020-5-26T02:54:09Z
2020-05-26T00:56:29Z,42.805,6.029,13.2995,4.59994,2470.063,2020-5-26T02:57:12Z
2020-05-26T00:59:32Z,42.805,6.029,13.3002,4.59994,2470.1,2020-5-26T03:00:15Z
2020-05-26T01:02:36Z,42.805,6.029,13.3006,4.59992,2470.063,2020-5-26T03:03:19Z
2020-05-26T01:05:39Z,42.805,6.029,13.3004,4.59990,2470.053,2020-5-26T03:06:22Z
2020-05-26T01:08:42Z,42.805,6.029,13.2993,4.59988,2470.063,2020-5-26T03:09:25Z
2020-05-26T01:11:46Z,42.805,6.029,13.2991,4.59991,2470.077,2020-5-26T03:12:28Z
2020-05-26T01:14:49Z,42.805,6.029,13.3000,4.59992,2470.017,2020-5-26T03:15:32Z
2020-05-26T01:17:52Z,42.805,6.029,13.2988,4.59991,2470.063,2020-5-26T03:18:35Z
2020-05-26T01:20:55Z,42.805,6.029,13.2989,4.59991,2470.03,2020-5-26T03:21:38Z
2020-05-26T01:23:59Z,42.805,6.029,13.2999,4.59991,2470.063,2020-5-26T03:24:41Z
2020-05-26T01:27:02Z,42.805,6.029,13.2993,4.59990,2470.04,2020-5-26T03:27:45Z
2020-05-26T01:30:05Z,42.805,6.029,13.3000,4.59986,2470.04,2020-5-26T03:30:48Z
2020-05-26T01:33:08Z,42.805,6.029,13.2990,4.59988,2470.053,2020-5-26T03:33:51Z
2020-05-26T01:36:12Z,42.805,6.029,13.2987,4.59992,2470.04,2020-5-26T03:36:54Z
2020-05-26T01:39:15Z,42.805,6.029,13.2991,4.59988,2470.053,2020-5-26T03:39:58Z
2020-05-26T01:42:18Z,42.805,6.029,13.2993,4.59992,2470.017,2020-5-26T03:43:01Z
2020-05-26T01:45:21Z,42.805,6.029,13.3003,4.59991,2470.053,2020-5-26T03:46:04Z
2020-05-26T01:48:24Z,42.805,6.029,13.2996,4.59983,2470.053,2020-5-26T03:49:07Z
2020-05-26T01:51:28Z,42.805,6.029,13.2990,4.59993,2470.017,2020-5-26T03:52:10Z
2020-05-26T01:54:31Z,42.805,6.029,13.2990,4.59989,2470.053,2020-5-26T03:55:14Z
2020-05-26T01:57:34Z,42.805,6.029,13.2992,4.59986,2470.04,2020-5-26T03:58:17Z
2020-05-26T02:00:37Z,42.805,6.029,13.2988,4.59983,2469.993,2020-5-26T04:01:20Z
2020-05-26T02:03:41Z,42.805,6.029,13.2993,4.59989,2470.017,2020-5-26T04:04:24Z
2020-05-26T02:06:44Z,42.805,6.029,13.3000,4.59986,2470.003,2020-5-26T04:07:27Z
2020-05-26T02:09:47Z,42.805,6.029,13.2989,4.59994,2470.017,2020-5-26T04:10:30Z
2020-05-26T02:12:50Z,42.805,6.029,13.2992,4.59994,2470.017,2020-5-26T04:13:33Z
2020-05-26T02:15:54Z,42.805,6.029,13.2997,4.59996,2470.017,2020-5-26T04:16:36Z
2020-05-26T02:18:57Z,42.805,6.029,13.2986,4.59989,2470.007,2020-5-26T04:19:40Z
2020-05-26T02:22:00Z,42.805,6.029,13.2995,4.59992,2470.017,2020-5-26T04:22:43Z
2020-05-26T02:25:03Z,42.805,6.029,13.2992,4.59992,2470.017,2020-5-26T04:25:46Z
2020-05-26T02:28:07Z,42.805,6.029,13.2995,4.59989,2470.017,2020-5-26T04:28:49Z
2020-05-26T02:31:10Z,42.805,6.029,13.2997,4.59986,2469.993,2020-5-26T04:31:53Z
2020-05-26T02:34:13Z,42.805,6.029,13.2990,4.59986,2470.03,2020-5-26T04:34:56Z
2020-05-26T02:37:16Z,42.805,6.029,13.3002,4.59990,2470.007,2020-5-26T04:37:59Z
2020-05-26T02:40:20Z,42.805,6.029,13.3003,4.59997,2470.007,2020-5-26T04:41:02Z
2020-05-26T02:43:23Z,42.805,6.029,13.2995,4.59984,2469.993,2020-5-26T04:44:06Z
2020-05-26T02:46:26Z,42.805,6.029,13.2991,4.59989,2469.97,2020-5-26T04:47:09Z
2020-05-26T02:49:29Z,42.805,6.029,13.2996,4.59993,2470.017,2020-5-26T04:50:12Z
2020-05-26T02:52:33Z,42.805,6.029,13.2995,4.59988,2469.984,2020-5-26T04:53:15Z
2020-05-26T02:55:36Z,42.805,6.029,13.2983,4.59982,2469.97,2020-5-26T04:56:19Z
2020-05-26T02:58:39Z,42.805,6.029,13.2990,4.59991,2470.04,2020-5-26T04:59:22Z
2020-05-26T03:01:42Z,42.805,6.029,13.2990,4.59988,2470.03,2020-5-26T05:02:25Z
2020-05-26T03:04:46Z,42.805,6.029,13.2987,4.59986,2469.993,2020-5-26T05:05:28Z
2020-05-26T03:07:49Z,42.805,6.029,13.2993,4.59987,2470.007,2020-5-26T05:08:32Z
2020-05-26T03:10:52Z,42.805,6.029,13.2991,4.59990,2469.993,2020-5-26T05:11:35Z
2020-05-26T03:13:55Z,42.805,6.029,13.2996,4.59993,2469.993,2020-5-26T05:14:38Z
2020-05-26T03:16:59Z,42.805,6.029,13.3000,4.59996,2469.97,2020-5-26T05:17:42Z
2020-05-26T03:20:02Z,42.805,6.029,13.3014,4.59996,2469.97,2020-5-26T05:20:45Z
2020-05-26T03:23:05Z,42.805,6.029,13.2990,4.59998,2469.993,2020-5-26T05:23:48Z
2020-05-26T03:26:08Z,42.805,6.029,13.3000,4.59999,2470.007,2020-5-26T05:26:51Z
2020-05-26T03:29:12Z,42.805,6.029,13.3009,4.59994,2470.007,2020-5-26T05:29:55Z
2020-05-26T03:32:15Z,42.805,6.029,13.2998,4.59996,2469.993,2020-5-26T05:32:58Z
2020-05-26T03:35:18Z,42.805,6.029,13.2996,4.59994,2470.007,2020-5-26T05:36:01Z
2020-05-26T03:38:22Z,42.805,6.029,13.2995,4.59988,2470.03,2020-5-26T05:39:04Z
2020-05-26T03:41:25Z,42.805,6.029,13.2996,4.59989,2469.97,2020-5-26T05:42:08Z
2020-05-26T03:44:28Z,42.805,6.029,13.2996,4.59994,2469.97,2020-5-26T05:45:11Z
2020-05-26T03:47:31Z,42.805,6.029,13.2993,4.59992,2469.947,2020-5-26T05:48:14Z
2020-05-26T03:50:35Z,42.805,6.029,13.2991,4.59994,2469.993,2020-5-26T05:51:17Z
2020-05-26T03:53:38Z,42.805,6.029,13.3009,4.59995,2469.993,2020-5-26T05:54:21Z
2020-05-26T03:56:41Z,42.805,6.029,13.2996,4.59998,2470.007,2020-5-26T05:57:24Z
2020-05-26T03:59:45Z,42.805,6.029,13.2990,4.59992,2469.993,2020-5-26T06:00:27Z
2020-05-26T04:02:48Z,42.805,6.029,13.2994,4.59992,2469.947,2020-5-26T06:03:31Z
2020-05-26T04:05:51Z,42.805,6.029,13.2984,4.59995,2469.97,2020-5-26T06:06:34Z
2020-05-26T04:08:54Z,42.805,6.029,13.2990,4.59989,2469.97,2020-5-26T06:09:37Z
2020-05-26T04:11:58Z,42.805,6.029,13.2994,4.59988,2469.97,2020-5-26T06:12:40Z
2020-05-26T04:15:01Z,42.805,6.029,13.2998,4.59996,2470.007,2020-5-26T06:15:44Z
2020-05-26T04:18:04Z,42.805,6.029,13.2995,4.59994,2470.017,2020-5-26T06:18:47Z
2020-05-26T04:21:07Z,42.805,6.029,13.3003,4.59992,2469.984,2020-5-26T06:21:50Z
2020-05-26T04:24:11Z,42.805,6.029,13.2993,4.59992,2470.007,2020-5-26T06:24:53Z
2020-05-26T04:27:14Z,42.805,6.029,13.2996,4.59994,2469.97,2020-5-26T06:27:57Z
2020-05-26T04:30:17Z,42.805,6.029,13.2990,4.59989,2469.993,2020-5-26T06:31:00Z
2020-05-26T04:33:20Z,42.805,6.029,13.3004,4.59989,2469.97,2020-5-26T06:34:03Z
2020-05-26T04:36:24Z,42.805,6.029,13.2998,4.59995,2469.993,2020-5-26T06:37:06Z
2020-05-26T04:39:27Z,42.805,6.029,13.2997,4.59996,2469.97,2020-5-26T06:40:10Z
2020-05-26T04:42:30Z,42.805,6.029,13.2993,4.59994,2469.97,2020-5-26T06:43:13Z
2020-05-26T04:45:33Z,42.805,6.029,13.3000,4.59994,2470.007,2020-5-26T06:46:16Z
2020-05-26T04:48:37Z,42.805,6.029,13.2997,4.59996,2469.993,2020-5-26T06:49:19Z
2020-05-26T04:51:40Z,42.805,6.029,13.3003,4.59996,2469.97,2020-5-26T06:52:23Z
2020-05-26T04:54:43Z,42.805,6.029,13.3002,4.59993,2469.947,2020-5-26T06:55:26Z
2020-05-26T04:57:47Z,42.805,6.029,13.3000,4.59995,2470.007,2020-5-26T06:58:29Z
2020-05-26T05:00:50Z,42.805,6.029,13.2998,4.59992,2469.97,2020-5-26T07:01:32Z
2020-05-26T05:03:53Z,42.805,6.029,13.2992,4.59994,2469.993,2020-5-26T07:04:36Z
2020-05-26T05:06:56Z,42.805,6.029,13.2995,4.59996,2470.017,2020-5-26T07:07:39Z
2020-05-26T05:09:59Z,42.805,6.029,13.2994,4.59991,2469.97,2020-5-26T07:10:42Z
2020-05-26T05:13:03Z,42.805,6.029,13.2996,4.59987,2470.007,2020-5-26T07:13:45Z
2020-05-26T05:16:06Z,42.805,6.029,13.2996,4.59989,2469.993,2020-5-26T07:16:49Z
2020-05-26T05:19:10Z,42.805,6.029,13.2998,4.60000,2469.993,2020-5-26T07:19:52Z
2020-05-26T05:22:13Z,42.805,6.029,13.2995,4.59993,2469.984,2020-5-26T07:22:56Z
2020-05-26T05:25:16Z,42.805,6.029,13.2991,4.59991,2469.993,2020-5-26T07:25:59Z
2020-05-26T05:28:19Z,42.805,6.029,13.2987,4.59989,2470.007,2020-5-26T07:29:02Z
2020-05-26T05:31:23Z,42.805,6.029,13.2994,4.60008,2469.993,2020-5-26T07:32:05Z
2020-05-26T05:34:26Z,42.805,6.029,13.3008,4.59995,2470.007,2020-5-26T07:35:09Z
2020-05-26T05:37:30Z,42.805,6.029,13.2998,4.59994,2469.993,2020-5-26T07:38:12Z
2020-05-26T05:40:33Z,42.805,6.029,13.3000,4.60001,2470.017,2020-5-26T07:41:16Z
2020-05-26T05:43:36Z,42.805,6.029,13.2996,4.60001,2469.984,2020-5-26T07:44:19Z
2020-05-26T05:46:39Z,42.805,6.029,13.3006,4.59992,2469.993,2020-5-26T07:47:22Z
2020-05-26T05:49:43Z,42.805,6.029,13.2997,4.60000,2470.007,2020-5-26T07:50:25Z
2020-05-26T05:52:46Z,42.805,6.029,13.3009,4.59991,2470.007,2020-5-26T07:53:29Z
2020-05-26T05:55:49Z,42.805,6.029,13.3003,4.59997,2470.017,2020-5-26T07:56:32Z
2020-05-26T05:58:52Z,42.805,6.029,13.3000,4.59996,2469.993,2020-5-26T07:59:35Z
2020-05-26T06:01:56Z,42.805,6.029,13.3007,4.59998,2470.017,2020-5-26T08:02:38Z
2020-05-26T06:04:59Z,42.805,6.029,13.3015,4.59994,2470.053,2020-5-26T08:05:42Z
2020-05-26T06:08:02Z,42.805,6.029,13.3006,4.60001,2470.017,2020-5-26T08:08:45Z
2020-05-26T06:11:05Z,42.805,6.029,13.3000,4.60003,2470.03,2020-5-26T08:11:48Z
2020-05-26T06:14:08Z,42.805,6.029,13.2999,4.60001,2470.007,2020-5-26T08:14:51Z
2020-05-26T06:17:12Z,42.805,6.029,13.3007,4.59994,2470.017,2020-5-26T08:17:54Z
2020-05-26T06:20:15Z,42.805,6.029,13.2993,4.59996,2470.053,2020-5-26T08:20:58Z
2020-05-26T06:23:18Z,42.805,6.029,13.3012,4.59999,2469.993,2020-5-26T08:24:01Z
2020-05-26T06:26:21Z,42.805,6.029,13.3002,4.60001,2470.03,2020-5-26T08:27:04Z
2020-05-26T06:29:25Z,42.805,6.029,13.2994,4.59996,2470.03,2020-5-26T08:30:07Z
2020-05-26T06:32:28Z,42.805,6.029,13.3000,4.59996,2470.007,2020-5-26T08:33:11Z
2020-05-26T06:35:31Z,42.805,6.029,13.2993,4.60009,2470.03,2020-5-26T08:36:14Z
2020-05-26T06:38:34Z,42.805,6.029,13.3033,4.59999,2470.053,2020-5-26T08:39:17Z
2020-05-26T06:41:38Z,42.805,6.029,13.3029,4.59995,2470.03,2020-5-26T08:42:20Z
2020-05-26T06:44:41Z,42.805,6.029,13.3000,4.60000,2470.017,2020-5-26T08:45:24Z
2020-05-26T06:47:44Z,42.805,6.029,13.3000,4.60006,2470.017,2020-5-26T08:48:27Z
2020-05-26T06:50:47Z,42.805,6.029,13.3000,4.59998,2470.04,2020-5-26T08:51:30Z
2020-05-26T06:53:51Z,42.805,6.029,13.2994,4.59996,2470.053,2020-5-26T08:54:33Z
2020-05-26T06:56:54Z,42.805,6.029,13.2997,4.59991,2470.053,2020-5-26T08:57:37Z
2020-05-26T06:59:57Z,42.805,6.029,13.2994,4.59992,2470.03,2020-5-26T09:00:40Z
2020-05-26T07:03:01Z,42.805,6.029,13.2998,4.60006,2470.017,2020-5-26T09:03:44Z
2020-05-26T07:06:04Z,42.805,6.029,13.2998,4.59996,2470.053,2020-5-26T09:06:47Z
2020-05-26T07:09:07Z,42.805,6.029,13.3012,4.59997,2470.053,2020-5-26T09:09:50Z
2020-05-26T07:12:10Z,42.805,6.029,13.2996,4.60011,2470.063,2020-5-26T09:12:53Z
2020-05-26T07:15:14Z,42.805,6.029,13.2993,4.60005,2470.077,2020-5-26T09:15:57Z
2020-05-26T07:18:17Z,42.805,6.029,13.3003,4.60007,2470.04,2020-5-26T09:19:00Z
2020-05-26T07:21:20Z,42.805,6.029,13.3005,4.59998,2470.063,2020-5-26T09:22:03Z
2020-05-26T07:24:24Z,42.805,6.029,13.2998,4.59999,2470.053,2020-5-26T09:25:06Z
2020-05-26T07:27:27Z,42.805,6.029,13.2996,4.59998,2470.063,2020-5-26T09:28:10Z
2020-05-26T07:30:30Z,42.805,6.029,13.3008,4.59994,2470.077,2020-5-26T09:31:13Z
2020-05-26T07:33:33Z,42.805,6.029,13.2996,4.60003,2470.077,2020-5-26T09:34:16Z
2020-05-26T07:36:37Z,42.805,6.029,13.3007,4.60013,2470.063,2020-5-26T09:37:19Z
2020-05-26T07:39:40Z,42.805,6.029,13.3001,4.60001,2470.04,2020-5-26T09:40:23Z
2020-05-26T07:42:43Z,42.805,6.029,13.2997,4.59994,2470.04,2020-5-26T09:43:26Z
2020-05-26T07:45:47Z,42.805,6.029,13.3021,4.59994,2470.077,2020-5-26T09:46:29Z
2020-05-26T07:48:50Z,42.805,6.029,13.3006,4.59993,2470.04,2020-5-26T09:49:33Z
2020-05-26T07:51:53Z,42.805,6.029,13.3006,4.59996,2470.063,2020-5-26T09:52:36Z
2020-05-26T07:54:56Z,42.805,6.029,13.3006,4.59997,2470.053,2020-5-26T09:55:39Z
2020-05-26T07:58:00Z,42.805,6.029,13.3019,4.60017,2470.1,2020-5-26T09:58:43Z
2020-05-26T08:01:03Z,42.805,6.029,13.3000,4.60003,2470.063,2020-5-26T10:01:46Z
2020-05-26T08:04:06Z,42.805,6.029,13.3009,4.60005,2470.1,2020-5-26T10:04:49Z
2020-05-26T08:07:10Z,42.805,6.029,13.3004,4.60005,2470.063,2020-5-26T10:07:53Z
2020-05-26T08:10:13Z,42.805,6.029,13.3001,4.60011,2470.063,2020-5-26T10:10:56Z
2020-05-26T08:13:16Z,42.805,6.029,13.3005,4.59992,2470.087,2020-5-26T10:13:59Z
2020-05-26T08:16:20Z,42.805,6.029,13.3001,4.60000,2470.1,2020-5-26T10:17:02Z
2020-05-26T08:19:23Z,42.805,6.029,13.3006,4.59997,2470.077,2020-5-26T10:20:05Z
2020-05-26T08:22:26Z,42.805,6.029,13.2999,4.59996,2470.087,2020-5-26T10:23:09Z
2020-05-26T08:25:29Z,42.805,6.029,13.3003,4.59991,2470.077,2020-5-26T10:26:12Z
2020-05-26T08:28:32Z,42.805,6.029,13.2999,4.60000,2470.077,2020-5-26T10:29:15Z
2020-05-26T08:31:36Z,42.805,6.029,13.3001,4.59999,2470.11,2020-5-26T10:32:18Z
2020-05-26T08:34:39Z,42.805,6.029,13.3002,4.60013,2470.1,2020-5-26T10:35:22Z
2020-05-26T08:37:42Z,42.805,6.029,13.3006,4.60017,2470.1,2020-5-26T10:38:25Z
2020-05-26T08:40:45Z,42.805,6.029,13.3032,4.59997,2470.063,2020-5-26T10:41:28Z
2020-05-26T08:43:48Z,42.805,6.029,13.3004,4.60009,2470.077,2020-5-26T10:44:31Z
2020-05-26T08:46:52Z,42.805,6.029,13.3000,4.59999,2470.063,2020-5-26T10:47:35Z
2020-05-26T08:49:55Z,42.805,6.029,13.3021,4.59999,2470.077,2020-5-26T10:50:38Z
2020-05-26T08:52:58Z,42.805,6.029,13.3023,4.60001,2470.087,2020-5-26T10:53:41Z
2020-05-26T08:56:02Z,42.805,6.029,13.3000,4.59997,2470.1,2020-5-26T10:56:45Z
2020-05-26T08:59:05Z,42.805,6.029,13.3003,4.60003,2470.1,2020-5-26T10:59:48Z
2020-05-26T09:02:08Z,42.805,6.029,13.3004,4.60004,2470.053,2020-5-26T11:02:51Z
2020-05-26T09:05:11Z,42.805,6.029,13.3004,4.60005,2470.04,2020-5-26T11:05:54Z
2020-05-26T09:08:15Z,42.805,6.029,13.3000,4.60011,2470.063,2020-5-26T11:08:57Z
2020-05-26T09:11:18Z,42.805,6.029,13.3020,4.59996,2470.1,2020-5-26T11:12:01Z
2020-05-26T09:14:21Z,42.805,6.029,13.3003,4.59991,2470.063,2020-5-26T11:15:04Z
2020-05-26T09:17:25Z,42.805,6.029,13.3006,4.59988,2470.063,2020-5-26T11:18:07Z
2020-05-26T09:20:28Z,42.805,6.029,13.3000,4.59999,2470.063,2020-5-26T11:21:11Z
2020-05-26T09:23:31Z,42.805,6.029,13.3026,4.60005,2470.077,2020-5-26T11:24:14Z
2020-05-26T09:26:34Z,42.805,6.029,13.3009,4.60005,2470.063,2020-5-26T11:27:17Z
2020-05-26T09:29:38Z,42.805,6.029,13.3009,4.60011,2470.063,2020-5-26T11:30:20Z
2020-05-26T09:32:41Z,42.805,6.029,13.3019,4.60009,2470.017,2020-5-26T11:33:24Z
2020-05-26T09:35:44Z,42.805,6.029,13.3012,4.59999,2470.087,2020-5-26T11:36:27Z
2020-05-26T09:38:47Z,42.805,6.029,13.3024,4.60001,2470.063,2020-5-26T11:39:30Z
2020-05-26T09:41:51Z,42.805,6.029,13.3008,4.60002,2470.087,2020-5-26T11:42:34Z
2020-05-26T09:44:54Z,42.805,6.029,13.3010,4.60004,2470.077,2020-5-26T11:45:37Z
2020-05-26T09:47:57Z,42.805,6.029,13.3012,4.59993,2470.1,2020-5-26T11:48:40Z
2020-05-26T09:51:01Z,42.805,6.029,13.3017,4.60014,2470.053,2020-5-26T11:51:43Z
2020-05-26T09:54:04Z,42.805,6.029,13.2998,4.59998,2470.063,2020-5-26T11:54:47Z
2020-05-26T09:57:07Z,42.805,6.029,13.3029,4.60004,2470.077,2020-5-26T11:57:50Z
2020-05-26T10:00:10Z,42.805,6.029,13.3023,4.60006,2470.087,2020-5-26T12:00:53Z
2020-05-26T10:03:14Z,42.805,6.029,13.3025,4.60002,2470.063,2020-5-26T12:03:56Z
2020-05-26T10:06:17Z,42.805,6.029,13.3021,4.59988,2470.063,2020-5-26T12:07:00Z
2020-05-26T10:09:20Z,42.805,6.029,13.3011,4.60006,2470.04,2020-5-26T12:10:03Z
2020-05-26T10:12:23Z,42.805,6.029,13.3014,4.60005,2470.077,2020-5-26T12:13:06Z
2020-05-26T10:15:27Z,42.805,6.029,13.3015,4.60013,2470.063,2020-5-26T12:16:10Z
2020-05-26T10:18:30Z,42.805,6.029,13.3006,4.60004,2470.063,2020-5-26T12:19:13Z
2020-05-26T10:21:33Z,42.805,6.029,13.3005,4.60002,2470.04,2020-5-26T12:22:16Z
2020-05-26T10:24:37Z,42.805,6.029,13.3015,4.59999,2470.087,2020-5-26T12:25:19Z
2020-05-26T10:27:40Z,42.805,6.029,13.3010,4.60005,2470.077,2020-5-26T12:28:23Z
2020-05-26T10:30:43Z,42.805,6.029,13.3015,4.60002,2470.063,2020-5-26T12:31:26Z
2020-05-26T10:33:46Z,42.805,6.029,13.3012,4.60005,2470.03,2020-5-26T12:34:29Z
2020-05-26T10:36:50Z,42.805,6.029,13.3001,4.60006,2470.063,2020-5-26T12:37:32Z
2020-05-26T10:39:53Z,42.805,6.029,13.3012,4.60033,2470.063,2020-5-26T12:40:36Z
2020-05-26T10:42:56Z,42.805,6.029,13.3015,4.60020,2470.053,2020-5-26T12:43:39Z
2020-05-26T10:45:59Z,42.805,6.029,13.3011,4.60003,2470.03,2020-5-26T12:46:42Z
2020-05-26T10:49:02Z,42.805,6.029,13.3007,4.60007,2470.03,2020-5-26T12:49:45Z
2020-05-26T10:52:06Z,42.805,6.029,13.3019,4.60009,2470.04,2020-5-26T12:52:49Z
2020-05-26T10:55:09Z,42.805,6.029,13.3004,4.60009,2470.017,2020-5-26T12:55:52Z
2020-05-26T10:58:12Z,42.805,6.029,13.3017,4.59999,2470.053,2020-5-26T12:58:55Z
2020-05-26T11:01:15Z,42.805,6.029,13.3009,4.60021,2470.053,2020-5-26T13:01:58Z
2020-05-26T11:04:19Z,42.805,6.029,13.3006,4.59993,2470.017,2020-5-26T13:05:01Z
2020-05-26T11:07:22Z,42.805,6.029,13.3004,4.59986,2470.007,2020-5-26T13:08:05Z
2020-05-26T11:10:25Z,42.805,6.029,13.3009,4.60007,2470.017,2020-5-26T13:11:08Z
2020-05-26T11:13:28Z,42.805,6.029,13.3019,4.59996,2470.04,2020-5-26T13:14:11Z
2020-05-26T11:16:32Z,42.805,6.029,13.3004,4.59996,2470.017,2020-5-26T13:17:14Z
2020-05-26T11:19:35Z,42.805,6.029,13.3014,4.60002,2470.053,2020-5-26T13:20:18Z
2020-05-26T11:22:38Z,42.805,6.029,13.3014,4.60002,2470.03,2020-5-26T13:23:21Z
2020-05-26T11:25:41Z,42.805,6.029,13.3000,4.60003,2470.017,2020-5-26T13:26:24Z
2020-05-26T11:28:45Z,42.805,6.029,13.3028,4.60006,2470.04,2020-5-26T13:29:27Z
2020-05-26T11:31:48Z,42.805,6.029,13.3009,4.60016,2470.017,2020-5-26T13:32:31Z
2020-05-26T11:34:51Z,42.805,6.029,13.3021,4.60055,2470.03,2020-5-26T13:35:34Z
2020-05-26T11:37:54Z,42.805,6.029,13.3019,4.60018,2470.007,2020-5-26T13:38:37Z
2020-05-26T11:40:58Z,42.805,6.029,13.3015,4.60007,2470.053,2020-5-26T13:41:40Z
2020-05-26T11:44:01Z,42.805,6.029,13.2979,4.60024,2470.03,2020-5-26T13:44:44Z
2020-05-26T11:47:04Z,42.805,6.029,13.3026,4.59999,2470.03,2020-5-26T13:47:47Z
2020-05-26T11:50:08Z,42.805,6.029,13.2998,4.60013,2469.993,2020-5-26T13:50:50Z
2020-05-26T11:53:11Z,42.805,6.029,13.3011,4.60006,2469.993,2020-5-26T13:53:54Z
2020-05-26T11:56:14Z,42.805,6.029,13.3031,4.60003,2470.007,2020-5-26T13:56:57Z
2020-05-26T11:59:17Z,42.805,6.029,13.3011,4.60003,2469.984,2020-5-26T14:00:00Z
2020-05-26T12:02:21Z,42.805,6.029,13.3003,4.60007,2469.984,2020-5-26T14:03:03Z
2020-05-26T12:05:24Z,42.805,6.029,13.3011,4.59988,2469.97,2020-5-26T14:06:07Z
2020-05-26T12:08:27Z,42.805,6.029,13.3004,4.60005,2470.007,2020-5-26T14:09:10Z
2020-05-26T12:11:31Z,42.805,6.029,13.3006,4.59994,2470.007,2020-5-26T14:12:13Z
2020-05-26T12:14:34Z,42.805,6.029,13.3016,4.59998,2470.007,2020-5-26T14:15:17Z
2020-05-26T12:17:37Z,42.805,6.029,13.2996,4.60005,2469.947,2020-5-26T14:18:20Z
2020-05-26T12:20:40Z,42.805,6.029,13.2999,4.60006,2469.97,2020-5-26T14:21:23Z
2020-05-26T12:23:44Z,42.805,6.029,13.3006,4.60006,2469.97,2020-5-26T14:24:26Z
2020-05-26T12:26:47Z,42.805,6.029,13.2986,4.60021,2469.993,2020-5-26T14:27:30Z
2020-05-26T12:29:50Z,42.805,6.029,13.3019,4.60007,2470.007,2020-5-26T14:30:33Z
2020-05-26T12:32:53Z,42.805,6.029,13.3009,4.60014,2470.007,2020-5-26T14:33:36Z
2020-05-26T12:35:57Z,42.805,6.029,13.3009,4.60014,2469.97,2020-5-26T14:36:39Z
2020-05-26T12:39:00Z,42.805,6.029,13.3014,4.60000,2469.993,2020-5-26T14:39:43Z
2020-05-26T12:42:03Z,42.805,6.029,13.3011,4.59991,2469.947,2020-5-26T14:42:46Z
2020-05-26T12:45:06Z,42.805,6.029,13.2994,4.60004,2469.97,2020-5-26T14:45:49Z
2020-05-26T12:48:10Z,42.805,6.029,13.2991,4.60019,2469.984,2020-5-26T14:48:52Z
2020-05-26T12:51:13Z,42.805,6.029,13.2987,4.60010,2469.984,2020-5-26T14:51:56Z
2020-05-26T12:54:16Z,42.805,6.029,13.3009,4.60010,2469.96,2020-5-26T14:54:59Z
2020-05-26T12:57:19Z,42.805,6.029,13.3051,4.59991,2469.923,2020-5-26T14:58:02Z
2020-05-26T13:00:23Z,42.805,6.029,13.3019,4.60008,2469.96,2020-5-26T15:01:05Z
2020-05-26T13:03:26Z,42.805,6.029,13.3038,4.60005,2469.97,2020-5-26T15:04:09Z
2020-05-26T13:06:29Z,42.805,6.029,13.3009,4.60013,2469.984,2020-5-26T15:07:12Z
2020-05-26T13:09:33Z,42.805,6.029,13.3014,4.60009,2469.96,2020-5-26T15:10:15Z
2020-05-26T13:12:36Z,42.805,6.029,13.3017,4.60006,2469.984,2020-5-26T15:13:19Z
2020-05-26T13:15:39Z,42.805,6.029,13.3017,4.59989,2469.947,2020-5-26T15:16:22Z
2020-05-26T13:18:42Z,42.805,6.029,13.3019,4.60003,2469.96,2020-5-26T15:19:25Z
2020-05-26T13:21:46Z,42.805,6.029,13.3003,4.59996,2469.947,2020-5-26T15:22:28Z
2020-05-26T13:24:49Z,42.805,6.029,13.3003,4.59999,2469.947,2020-5-26T15:25:32Z
2020-05-26T13:27:52Z,42.805,6.029,13.3013,4.60002,2469.96,2020-5-26T15:28:35Z
2020-05-26T13:30:55Z,42.805,6.029,13.3010,4.60011,2469.984,2020-5-26T15:31:38Z
2020-05-26T13:33:59Z,42.805,6.029,13.3027,4.60006,2469.923,2020-5-26T15:34:41Z
2020-05-26T13:37:02Z,42.805,6.029,13.3015,4.60008,2469.97,2020-5-26T15:37:45Z
2020-05-26T13:40:05Z,42.805,6.029,13.3024,4.60007,2469.947,2020-5-26T15:40:48Z
2020-05-26T13:43:08Z,42.805,6.029,13.3006,4.59994,2469.947,2020-5-26T15:43:51Z
2020-05-26T13:46:12Z,42.805,6.029,13.3024,4.60019,2469.947,2020-5-26T15:46:54Z
2020-05-26T13:49:15Z,42.805,6.029,13.3002,4.60014,2469.937,2020-5-26T15:49:58Z
2020-05-26T13:52:18Z,42.805,6.029,13.3023,4.60010,2469.923,2020-5-26T15:53:01Z
2020-05-26T13:55:21Z,42.805,6.029,13.3023,4.60003,2469.947,2020-5-26T15:56:04Z
2020-05-26T13:58:25Z,42.805,6.029,13.3024,4.60009,2469.923,2020-5-26T15:59:07Z
2020-05-26T14:01:28Z,42.805,6.029,13.3035,4.60005,2469.923,2020-5-26T16:02:11Z
2020-05-26T14:04:31Z,42.805,6.029,13.3019,4.60004,2469.947,2020-5-26T16:05:14Z
2020-05-26T14:07:34Z,42.805,6.029,13.3018,4.60016,2469.9,2020-5-26T16:08:17Z
2020-05-26T14:10:38Z,42.805,6.029,13.3008,4.60019,2469.937,2020-5-26T16:11:20Z
2020-05-26T14:13:41Z,42.805,6.029,13.3034,4.60019,2469.9,2020-5-26T16:14:24Z
2020-05-26T14:16:44Z,42.805,6.029,13.3035,4.59998,2469.947,2020-5-26T16:17:27Z
2020-05-26T14:19:47Z,42.805,6.029,13.3023,4.60010,2469.96,2020-5-26T16:20:30Z
2020-05-26T14:22:51Z,42.805,6.029,13.3016,4.60001,2469.947,2020-5-26T16:23:33Z
2020-05-26T14:25:54Z,42.805,6.029,13.3029,4.60041,2469.923,2020-5-26T16:26:37Z
2020-05-26T14:28:57Z,42.805,6.029,13.3010,4.60007,2469.937,2020-5-26T16:29:40Z
2020-05-26T14:32:00Z,42.805,6.029,13.3019,4.60006,2469.937,2020-5-26T16:32:43Z
2020-05-26T14:35:03Z,42.805,6.029,13.3048,4.60000,2469.9,2020-5-26T16:35:46Z
2020-05-26T14:38:07Z,42.805,6.029,13.3052,4.60015,2469.9,2020-5-26T16:38:50Z
2020-05-26T14:41:10Z,42.805,6.029,13.3015,4.60018,2469.914,2020-5-26T16:41:53Z
2020-05-26T14:44:13Z,42.805,6.029,13.3028,4.59999,2469.923,2020-5-26T16:44:56Z
2020-05-26T14:47:16Z,42.805,6.029,13.3019,4.60019,2469.9,2020-5-26T16:47:59Z
2020-05-26T14:50:20Z,42.805,6.029,13.3036,4.60005,2469.923,2020-5-26T16:51:02Z
2020-05-26T14:53:23Z,42.805,6.029,13.3040,4.59999,2469.9,2020-5-26T16:54:06Z
2020-05-26T14:56:26Z,42.805,6.029,13.3014,4.60012,2469.914,2020-5-26T16:57:09Z
2020-05-26T14:59:29Z,42.805,6.029,13.3010,4.60007,2469.876,2020-5-26T17:00:12Z
2020-05-26T15:02:33Z,42.805,6.029,13.3016,4.60006,2469.937,2020-5-26T17:03:16Z
2020-05-26T15:05:36Z,42.805,6.029,13.3010,4.60010,2469.947,2020-5-26T17:06:19Z
2020-05-26T15:08:39Z,42.805,6.029,13.3024,4.60003,2469.9,2020-5-26T17:09:22Z
2020-05-26T15:11:42Z,42.805,6.029,13.3025,4.60001,2469.9,2020-5-26T17:12:25Z
2020-05-26T15:14:46Z,42.805,6.029,13.3017,4.59999,2469.9,2020-5-26T17:15:28Z